| time (UTC) | temp C | wind direction | speed KPH | gust KPH | rain 1hr cm | rain 24hr cm | rain mn cm | humidity % | barometer mb |
| 20260504212723 | 20 | 289 | 11.3 | 20.9 | 0.00 | 0.00 | 0.00 | 37 | 1009.2 |
| 20260504212220 | 20 | 269 | 11.3 | 19.3 | 0.00 | 0.00 | 0.00 | 36 | 1009.2 |
| 20260504211717 | 20 | 277 | 17.7 | 22.5 | 0.00 | 0.00 | 0.00 | 36 | 1009.3 |
| 20260504211213 | 21 | 288 | 0.0 | 16.1 | 0.00 | 0.00 | 0.00 | 35 | 1009.1 |
| 20260504210711 | 21 | 198 | 8.0 | 9.7 | 0.00 | 0.00 | 0.00 | 33 | 1009.0 |
| 20260504210208 | 20 | 276 | 14.5 | 20.9 | 0.00 | 0.00 | 0.00 | 34 | 1009.0 |
| 20260504205705 | 20 | 279 | 8.0 | 11.3 | 0.00 | 0.00 | 0.00 | 35 | 1009.0 |
| 20260504205202 | 19 | 248 | 9.7 | 24.1 | 0.00 | 0.00 | 0.00 | 35 | 1009.0 |
| 20260504204700 | 19 | 239 | 8.0 | 14.5 | 0.00 | 0.00 | 0.00 | 35 | 1009.0 |
| 20260504204159 | 19 | 276 | 14.5 | 32.2 | 0.00 | 0.00 | 0.00 | 35 | 1009.0 |
| 20260504203657 | 20 | 167 | 20.9 | 22.5 | 0.00 | 0.00 | 0.00 | 34 | 1008.9 |
| 20260504203154 | 19 | 222 | 9.7 | 22.5 | 0.00 | 0.00 | 0.00 | 35 | 1009.3 |
| 20260504202649 | 19 | 269 | 24.1 | 27.4 | 0.00 | 0.00 | 0.00 | 35 | 1009.1 |
| 20260504202146 | 20 | 279 | 22.5 | 43.5 | 0.00 | 0.00 | 0.00 | 34 | 1009.2 |
| 20260504201643 | 20 | 248 | 20.9 | 37.0 | 0.00 | 0.00 | 0.00 | 34 | 1009.0 |
| 20260504201141 | 19 | 272 | 17.7 | 24.1 | 0.00 | 0.00 | 0.00 | 35 | 1009.3 |
| 20260504200637 | 19 | 253 | 11.3 | 20.9 | 0.00 | 0.00 | 0.00 | 34 | 1009.2 |
| 20260504200134 | 20 | 4 | 6.4 | 17.7 | 0.00 | 0.00 | 0.00 | 34 | 1009.3 |
| 20260504195630 | 20 | 287 | 24.1 | 29.0 | 0.00 | 0.00 | 0.00 | 33 | 1009.5 |
| 20260504195126 | 20 | 287 | 11.3 | 27.4 | 0.00 | 0.00 | 0.00 | 33 | 1009.1 |
| 20260504194623 | 20 | 284 | 6.4 | 22.5 | 0.00 | 0.00 | 0.00 | 34 | 1009.3 |
| 20260504194119 | 19 | 264 | 12.9 | 29.0 | 0.00 | 0.00 | 0.00 | 34 | 1009.3 |
| 20260504193615 | 19 | 284 | 20.9 | 33.8 | 0.00 | 0.00 | 0.00 | 33 | 1009.3 |
| 20260504193114 | 19 | 14 | 4.8 | 17.7 | 0.00 | 0.00 | 0.00 | 34 | 1009.4 |
| 20260504192612 | 20 | 284 | 11.3 | 29.0 | 0.00 | 0.00 | 0.00 | 33 | 1009.2 |
| 20260504192110 | 20 | 241 | 17.7 | 30.6 | 0.00 | 0.00 | 0.00 | 34 | 1009.2 |
| 20260504191608 | 20 | 276 | 11.3 | 17.7 | 0.00 | 0.00 | 0.00 | 33 | 1009.2 |
| 20260504191104 | 20 | 259 | 11.3 | 27.4 | 0.00 | 0.00 | 0.00 | 32 | 1009.4 |
| 20260504190600 | 20 | 287 | 33.8 | 33.8 | 0.00 | 0.00 | 0.00 | 33 | 1009.2 |
| 20260504190056 | 20 | 282 | 11.3 | 19.3 | 0.00 | 0.00 | 0.00 | 32 | 1009.5 |
| 20260504185553 | 20 | 284 | 20.9 | 40.2 | 0.00 | 0.00 | 0.00 | 33 | 1009.4 |
| 20260504185050 | 20 | 283 | 24.1 | 27.4 | 0.00 | 0.00 | 0.00 | 33 | 1009.6 |
| 20260504184545 | 19 | 278 | 17.7 | 33.8 | 0.00 | 0.00 | 0.00 | 33 | 1009.6 |
| 20260504184041 | 20 | 271 | 16.1 | 38.6 | 0.00 | 0.00 | 0.00 | 32 | 1009.7 |
| 20260504183538 | 20 | 328 | 6.4 | 27.4 | 0.00 | 0.00 | 0.00 | 32 | 1009.8 |
| 20260504183036 | 20 | 304 | 6.4 | 25.7 | 0.00 | 0.00 | 0.00 | 33 | 1009.7 |
| 20260504182533 | 20 | 241 | 4.8 | 19.3 | 0.00 | 0.00 | 0.00 | 34 | 1010.0 |
| 20260504182030 | 20 | 287 | 12.9 | 20.9 | 0.00 | 0.00 | 0.00 | 32 | 1009.9 |
| 20260504181527 | 20 | 288 | 14.5 | 16.1 | 0.00 | 0.00 | 0.00 | 32 | 1009.9 |
| 20260504181026 | 19 | 145 | 4.8 | 33.8 | 0.00 | 0.00 | 0.00 | 33 | 1009.9 |
| 20260504180524 | 20 | 266 | 20.9 | 24.1 | 0.00 | 0.00 | 0.00 | 31 | 1010.0 |
| 20260504180023 | 19 | 314 | 24.1 | 33.8 | 0.00 | 0.00 | 0.00 | 32 | 1010.1 |
| 20260504175519 | 18 | 238 | 9.7 | 25.7 | 0.00 | 0.00 | 0.00 | 33 | 1010.0 |
| 20260504175016 | 19 | 252 | 11.3 | 25.7 | 0.00 | 0.00 | 0.00 | 33 | 1010.2 |
| 20260504174514 | 18 | 272 | 11.3 | 38.6 | 0.00 | 0.00 | 0.00 | 32 | 1010.3 |
| 20260504174011 | 19 | 264 | 17.7 | 33.8 | 0.00 | 0.00 | 0.00 | 32 | 1010.5 |
| 20260504173508 | 18 | 274 | 19.3 | 40.2 | 0.00 | 0.00 | 0.00 | 32 | 1010.6 |
| 20260504173005 | 18 | 316 | 11.3 | 27.4 | 0.00 | 0.00 | 0.00 | 32 | 1010.3 |
| 20260504172501 | 19 | 294 | 17.7 | 25.7 | 0.00 | 0.00 | 0.00 | 32 | 1010.4 |
| 20260504171957 | 18 | 245 | 11.3 | 37.0 | 0.00 | 0.00 | 0.00 | 33 | 1010.5 |
| 20260504171455 | 18 | 281 | 24.1 | 32.2 | 0.00 | 0.00 | 0.00 | 32 | 1010.2 |
| 20260504170951 | 17 | 278 | 9.7 | 37.0 | 0.00 | 0.00 | 0.00 | 34 | 1010.4 |
| 20260504170447 | 18 | 301 | 12.9 | 41.8 | 0.00 | 0.00 | 0.00 | 33 | 1010.4 |
| 20260504160407 | 18 | 298 | 22.5 | 33.8 | 0.00 | 0.00 | 0.00 | 35 | 1011.1 |
| 20260504150831 | 16 | 255 | 16.1 | 32.2 | 0.00 | 0.00 | 0.00 | 37 | 1012.1 |
| 20260504150328 | 16 | 264 | 11.3 | 25.7 | 0.00 | 0.00 | 0.00 | 39 | 1011.9 |
| 20260504141258 | 15 | 290 | 17.7 | 27.4 | 0.00 | 0.00 | 0.00 | 39 | 1012.5 |
| 20260504140755 | 15 | 277 | 27.4 | 35.4 | 0.00 | 0.00 | 0.00 | 40 | 1012.5 |
| 20260504140250 | 15 | 310 | 20.9 | 24.1 | 0.00 | 0.00 | 0.00 | 41 | 1012.4 |
| 20260504130719 | 13 | 330 | 4.8 | 17.7 | 0.00 | 0.00 | 0.00 | 44 | 1012.9 |
| 20260504130215 | 13 | 272 | 14.5 | 17.7 | 0.00 | 0.00 | 0.00 | 45 | 1012.9 |
| 20260504120139 | 10 | 282 | 24.1 | 25.7 | 0.00 | 0.00 | 0.00 | 52 | 1013.6 |
| 20260504110606 | 8 | 264 | 14.5 | 22.5 | 0.00 | 0.00 | 0.00 | 56 | 1013.4 |
| 20260504100522 | 5 | 255 | 6.4 | 9.7 | 0.00 | 0.00 | 0.00 | 63 | 1013.0 |
| 20260504081916 | 6 | 229 | 3.2 | 8.0 | 0.00 | 0.00 | 0.00 | 59 | 1012.6 |
| 20260504081413 | 6 | 252 | 4.8 | 9.7 | 0.00 | 0.00 | 0.00 | 58 | 1012.5 |
| 20260504080909 | 6 | 233 | 0.0 | 8.0 | 0.00 | 0.00 | 0.00 | 57 | 1012.7 |
| 20260504080406 | 6 | 234 | 6.4 | 9.7 | 0.00 | 0.00 | 0.00 | 57 | 1012.6 |
| 20260504070333 | 6 | 258 | 11.3 | 12.9 | 0.00 | 0.00 | 0.00 | 53 | 1012.5 |
| 20260504050721 | 6 | 259 | 4.8 | 6.4 | 0.00 | 0.00 | 0.00 | 54 | 1012.6 |
| 20260504050218 | 6 | 242 | 6.4 | 9.7 | 0.00 | 0.00 | 0.00 | 54 | 1012.5 |
| 20260504045715 | 6 | 291 | 4.8 | 9.7 | 0.00 | 0.00 | 0.00 | 53 | 1012.7 |
| 20260504045215 | 6 | 258 | 8.0 | 8.0 | 0.00 | 0.00 | 0.00 | 53 | 1012.7 |
| 20260504044714 | 6 | 271 | 3.2 | 9.7 | 0.00 | 0.00 | 0.00 | 52 | 1012.6 |
| 20260504044211 | 6 | 258 | 4.8 | 6.4 | 0.00 | 0.00 | 0.00 | 51 | 1012.7 |
| 20260504043708 | 6 | 311 | 6.4 | 8.0 | 0.00 | 0.00 | 0.00 | 51 | 1012.7 |
| 20260504043204 | 6 | 255 | 4.8 | 6.4 | 0.00 | 0.00 | 0.00 | 51 | 1012.6 |
| 20260504042702 | 6 | 284 | 4.8 | 6.4 | 0.00 | 0.00 | 0.00 | 51 | 1012.7 |
| 20260504042158 | 6 | 283 | 4.8 | 6.4 | 0.00 | 0.00 | 0.00 | 51 | 1012.7 |
| 20260504041654 | 6 | 298 | 0.0 | 6.4 | 0.00 | 0.00 | 0.00 | 52 | 1012.7 |
| 20260504041150 | 6 | 297 | 4.8 | 8.0 | 0.00 | 0.00 | 0.00 | 52 | 1012.4 |
| 20260504040647 | 6 | 296 | 4.8 | 8.0 | 0.00 | 0.00 | 0.00 | 52 | 1012.3 |
| 20260504040144 | 6 | 292 | 6.4 | 8.0 | 0.00 | 0.00 | 0.00 | 51 | 1012.4 |
| 20260504035641 | 6 | 310 | 6.4 | 8.0 | 0.00 | 0.00 | 0.00 | 50 | 1012.2 |
| 20260504035137 | 6 | 273 | 9.7 | 11.3 | 0.00 | 0.00 | 0.00 | 50 | 1012.6 |
| 20260504034635 | 6 | 322 | 3.2 | 8.0 | 0.00 | 0.00 | 0.00 | 51 | 1012.3 |
| 20260504034132 | 6 | 280 | 6.4 | 9.7 | 0.00 | 0.00 | 0.00 | 50 | 1012.4 |
| 20260504033630 | 6 | 289 | 8.0 | 11.3 | 0.00 | 0.00 | 0.00 | 49 | 1012.5 |
| 20260504033127 | 6 | 280 | 8.0 | 11.3 | 0.00 | 0.00 | 0.00 | 51 | 1012.2 |
| 20260504032624 | 6 | 277 | 4.8 | 9.7 | 0.00 | 0.00 | 0.00 | 50 | 1012.5 |
| 20260504032121 | 6 | 271 | 4.8 | 8.0 | 0.00 | 0.00 | 0.00 | 49 | 1012.3 |
| 20260504031618 | 6 | 268 | 3.2 | 9.7 | 0.00 | 0.00 | 0.00 | 49 | 1012.2 |
| 20260504031114 | 7 | 302 | 6.4 | 9.7 | 0.00 | 0.00 | 0.00 | 48 | 1012.5 |
| 20260504030611 | 6 | 281 | 8.0 | 8.0 | 0.00 | 0.00 | 0.00 | 48 | 1012.3 |
| 20260504030108 | 6 | 287 | 4.8 | 8.0 | 0.00 | 0.00 | 0.00 | 48 | 1012.1 |
| 20260504025604 | 6 | 308 | 6.4 | 9.7 | 0.00 | 0.00 | 0.00 | 48 | 1012.1 |
| 20260504025101 | 6 | 290 | 6.4 | 8.0 | 0.00 | 0.00 | 0.00 | 48 | 1012.3 |
| 20260504024559 | 6 | 298 | 6.4 | 11.3 | 0.00 | 0.00 | 0.00 | 47 | 1012.1 |
| 20260504024055 | 6 | 282 | 8.0 | 9.7 | 0.00 | 0.00 | 0.00 | 47 | 1012.2 |
| 20260504023551 | 6 | 290 | 8.0 | 8.0 | 0.00 | 0.00 | 0.00 | 47 | 1012.0 |
| 20260504023047 | 6 | 300 | 4.8 | 11.3 | 0.00 | 0.00 | 0.00 | 48 | 1012.1 |
| 20260504022544 | 6 | 295 | 6.4 | 8.0 | 0.00 | 0.00 | 0.00 | 47 | 1012.1 |
| 20260504022040 | 6 | 278 | 4.8 | 8.0 | 0.00 | 0.00 | 0.00 | 49 | 1012.1 |
| 20260504021538 | 6 | 291 | 6.4 | 8.0 | 0.00 | 0.00 | 0.00 | 49 | 1012.0 |
| 20260504021035 | 5 | 294 | 6.4 | 9.7 | 0.00 | 0.00 | 0.00 | 54 | 1011.7 |
| 20260504020531 | 5 | 287 | 8.0 | 11.3 | 0.00 | 0.00 | 0.00 | 56 | 1012.0 |
| 20260504020028 | 6 | 295 | 4.8 | 11.3 | 0.00 | 0.00 | 0.00 | 52 | 1011.7 |
| 20260504015524 | 6 | 283 | 8.0 | 9.7 | 0.00 | 0.00 | 0.00 | 51 | 1011.7 |
| 20260504015020 | 6 | 304 | 4.8 | 9.7 | 0.00 | 0.00 | 0.00 | 51 | 1012.0 |
| 20260504014517 | 6 | 269 | 4.8 | 8.0 | 0.00 | 0.00 | 0.00 | 51 | 1011.5 |
| 20260504014014 | 6 | 261 | 8.0 | 8.0 | 0.00 | 0.00 | 0.00 | 51 | 1011.6 |
| 20260504013512 | 5 | 144 | 0.0 | 4.8 | 0.00 | 0.00 | 0.00 | 56 | 1011.6 |
| 20260504013009 | 5 | 292 | 3.2 | 8.0 | 0.00 | 0.00 | 0.00 | 56 | 1011.5 |
| 20260504012506 | 6 | 314 | 0.0 | 8.0 | 0.00 | 0.00 | 0.00 | 56 | 1011.5 |
| 20260504012004 | 6 | 267 | 6.4 | 8.0 | 0.00 | 0.00 | 0.00 | 53 | 1011.6 |
| 20260504011500 | 6 | 283 | 4.8 | 6.4 | 0.00 | 0.00 | 0.00 | 53 | 1011.4 |
| 20260504010955 | 6 | 224 | 0.0 | 3.2 | 0.00 | 0.00 | 0.00 | 52 | 1011.3 |
| 20260504010452 | 6 | 291 | 0.0 | 4.8 | 0.00 | 0.00 | 0.00 | 49 | 1011.3 |
| 20260504005948 | 6 | 265 | 0.0 | 4.8 | 0.00 | 0.00 | 0.00 | 49 | 1011.2 |
| 20260504005445 | 6 | 283 | 0.0 | 6.4 | 0.00 | 0.00 | 0.00 | 50 | 1010.9 |
| 20260504004943 | 6 | 269 | 0.0 | 6.4 | 0.00 | 0.00 | 0.00 | 51 | 1011.0 |
| 20260504004440 | 6 | 287 | 0.0 | 8.0 | 0.00 | 0.00 | 0.00 | 51 | 1010.9 |
| 20260504003937 | 6 | 243 | 0.0 | 3.2 | 0.00 | 0.00 | 0.00 | 51 | 1010.8 |
| 20260504003433 | 6 | 186 | 0.0 | 0.0 | 0.00 | 0.00 | 0.00 | 53 | 1010.8 |
| 20260504002930 | 6 | 113 | 0.0 | 3.2 | 0.00 | 0.00 | 0.00 | 52 | 1010.8 |
| 20260504002427 | 6 | 119 | 0.0 | 3.2 | 0.00 | 0.00 | 0.00 | 51 | 1010.9 |
| 20260504001924 | 6 | 124 | 0.0 | 0.0 | 0.00 | 0.00 | 0.00 | 51 | 1010.8 |
| 20260504001422 | 6 | 128 | 0.0 | 4.8 | 0.00 | 0.00 | 0.00 | 50 | 1010.7 |
| 20260504000918 | 7 | 95 | 0.0 | 3.2 | 0.00 | 0.00 | 0.00 | 49 | 1010.6 |
| 20260504000416 | 7 | 224 | 0.0 | 0.0 | 0.00 | 0.00 | 0.00 | 47 | 1010.7 |
| 20260503235913 | 7 | 224 | 0.0 | 0.0 | 0.00 | 0.00 | 0.00 | 46 | 1010.4 |
| 20260503235410 | 8 | 290 | 0.0 | 0.0 | 0.00 | 0.00 | 0.00 | 46 | 1010.5 |
| 20260503234908 | 8 | 285 | 3.2 | 4.8 | 0.00 | 0.00 | 0.00 | 45 | 1010.5 |
| 20260503234405 | 8 | 290 | 0.0 | 4.8 | 0.00 | 0.00 | 0.00 | 45 | 1010.5 |
| 20260503233903 | 8 | 315 | 6.4 | 8.0 | 0.00 | 0.00 | 0.00 | 44 | 1010.3 |
| 20260503233359 | 8 | 295 | 4.8 | 11.3 | 0.00 | 0.00 | 0.00 | 43 | 1010.6 |
| 20260503232855 | 8 | 312 | 0.0 | 8.0 | 0.00 | 0.00 | 0.00 | 43 | 1010.3 |
| 20260503232353 | 8 | 330 | 8.0 | 11.3 | 0.00 | 0.00 | 0.00 | 44 | 1010.3 |
| 20260503231850 | 9 | 335 | 4.8 | 8.0 | 0.00 | 0.00 | 0.00 | 43 | 1010.2 |
| 20260503231347 | 9 | 332 | 6.4 | 11.3 | 0.00 | 0.00 | 0.00 | 42 | 1010.2 |
| 20260503230843 | 9 | 342 | 8.0 | 12.9 | 0.00 | 0.00 | 0.00 | 42 | 1010.2 |
| 20260503230340 | 9 | 310 | 11.3 | 14.5 | 0.00 | 0.00 | 0.00 | 42 | 1010.0 |
| 20260503225839 | 9 | 305 | 11.3 | 17.7 | 0.00 | 0.00 | 0.00 | 42 | 1010.2 |
| 20260503225334 | 9 | 306 | 11.3 | 19.3 | 0.00 | 0.00 | 0.00 | 41 | 1010.4 |
| 20260503224831 | 9 | 281 | 17.7 | 25.7 | 0.00 | 0.00 | 0.00 | 40 | 1010.1 |
| 20260503224328 | 9 | 311 | 14.5 | 27.4 | 0.00 | 0.00 | 0.00 | 40 | 1009.9 |
| 20260503223826 | 10 | 315 | 12.9 | 27.4 | 0.00 | 0.00 | 0.00 | 40 | 1010.0 |
| 20260503223323 | 10 | 315 | 22.5 | 32.2 | 0.00 | 0.00 | 0.00 | 40 | 1010.0 |
| 20260503222818 | 9 | 3 | 12.9 | 25.7 | 0.00 | 0.00 | 0.00 | 41 | 1010.0 |
| 20260503222317 | 9 | 11 | 8.0 | 27.4 | 0.00 | 0.00 | 0.00 | 41 | 1010.1 |
| 20260503221815 | 10 | 304 | 12.9 | 20.9 | 0.00 | 0.00 | 0.00 | 40 | 1010.1 |
| 20260503221314 | 9 | 298 | 14.5 | 29.0 | 0.00 | 0.00 | 0.00 | 39 | 1010.0 |
| 20260503220809 | 9 | 201 | 9.7 | 30.6 | 0.00 | 0.00 | 0.00 | 41 | 1010.0 |
| 20260503220306 | 9 | 292 | 17.7 | 30.6 | 0.00 | 0.00 | 0.00 | 39 | 1009.7 |
| 20260503215802 | 10 | 327 | 12.9 | 30.6 | 0.00 | 0.00 | 0.00 | 39 | 1009.7 |
| 20260503215259 | 10 | 306 | 6.4 | 27.4 | 0.00 | 0.00 | 0.00 | 40 | 1009.8 |
| 20260503214757 | 10 | 309 | 16.1 | 27.4 | 0.00 | 0.00 | 0.00 | 39 | 1009.8 |
| 20260503214254 | 10 | 294 | 19.3 | 25.7 | 0.00 | 0.00 | 0.00 | 40 | 1009.5 |
| 20260503213752 | 9 | 332 | 24.1 | 38.6 | 0.00 | 0.00 | 0.00 | 39 | 1009.5 |
| 20260503213249 | 9 | 297 | 12.9 | 20.9 | 0.00 | 0.00 | 0.00 | 40 | 1009.3 |